{"data":{"norad_id":40968,"epoch":"2026-09-20T04:32:36.483360Z","epoch_age_seconds":41105,"freshness":"FRESH","line1":"1 40968U 15058E   26263.18931115  .00001759  00000+0  14500-3 0  9998","line2":"2 40968  64.7744 321.2382 0127575  17.2660 343.2733 14.96520052130879","mean_motion":14.96520052,"eccentricity":0.0127575,"inclination_deg":64.7744,"raan_deg":321.2382,"arg_perigee_deg":17.266,"mean_anomaly_deg":343.2733,"bstar":0.000145,"rev_number":13087,"period_min":96.22323456846,"perigee_km":488.92008325249,"apogee_km":666.39720916551,"semimajor_km":6955.795646209,"source":"CELESTRAK","updated_at":"2026-09-20T09:00:48.029023Z"}}